Wind_Speed
23 23 22 22 23 23 23 23 23 23 23 24 25 25 25 26 27 28 29 30 30 31 31 32 33 34 34 35 36 37 37 38 39 40 40 41 42 42 43 44 44 44 45
24 24 24 24 24 24 25 24 24 24 25 26 26 26 27 28 29 30 31 32 32 32 33 34 35 35 36 37 37 38 39 40 41 41 42 43 44 45 45 46 46 47 47
25 25 25 25 25 25 25 26 26 26 26 27 28 28 29 30 31 32 33 33 34 34 35 36 36 37 37 38 38 39 40 41 42 43 43 44 45 47 47 48 48 49 49
27 26 27 26 26 26 27 27 28 28 28 28 30 30 31 32 33 33 34 34 35 36 36 37 37 37 37 38 39 40 42 42 43 44 44 45 46 47 47 48 48 49 49
28 28 27 27 28 28 28 28 29 29 29 30 31 32 33 33 34 34 35 35 36 36 37 37 38 38 39 40 41 42 43 44 45 46 46 46 46 46 47 47 48 49 50
29 29 29 29 29 29 29 30 30 31 31 32 32 33 34 35 36 36 36 36 37 37 38 39 39 40 41 42 43 44 45 45 46 47 47 47 47 47 48 48 49 50 51
30 30 30 30 30 30 30 31 31 32 32 33 34 35 36 36 36 36 37 37 38 38 39 40 41 42 43 44 45 45 46 46 47 47 47 48 48 49 49 50 50 51 52
31 31 31 31 31 31 31 31 32 33 34 34 35 36 37 36 35 36 37 38 39 40 41 42 43 44 45 46 47 48 48 48 48 48 49 49 50 50 51 51 52 53 53
32 32 32 31 32 32 33 33 34 34 34 35 36 37 38 37 37 37 38 39 40 42 43 44 45 46 47 48 49 49 49 49 49 50 50 50 51 52 52 53 53 54 53
33 33 33 33 33 33 34 34 35 35 36 36 37 38 38 39 39 39 39 41 43 44 45 46 47 49 50 51 51 50 50 50 50 51 52 52 53 53 53 53 53 53 51
34 34 34 34 34 34 35 36 36 37 37 38 38 39 39 40 40 41 41 42 44 46 47 48 50 51 52 52 51 51 51 52 52 52 53 53 53 53 53 52 52 51 49
35 35 35 35 36 36 37 37 38 38 38 38 39 40 41 41 42 43 43 44 46 47 49 50 52 52 52 52 52 52 52 52 52 52 51 51 50 50 51 51 50 49 48
36 36 37 37 37 37 38 38 38 39 40 40 40 41 42 42 44 45 46 47 47 48 50 51 52 52 52 52 52 52 52 51 50 50 49 49 49 49 49 49 49 47 46
38 38 38 38 38 38 38 39 39 40 41 41 42 42 43 44 46 47 48 49 50 50 51 51 50 50 51 51 51 51 51 51 50 50 49 49 49 49 49 49 48 46 45
39 39 39 39 39 39 40 40 40 41 42 42 43 44 45 46 47 48 50 51 52 52 51 49 49 49 50 51 51 51 50 50 50 49 49 50 50 49 48 48 47 45 44
40 40 40 40 40 40 41 41 41 42 43 44 44 45 45 47 48 49 50 51 52 52 50 48 48 49 50 50 50 50 50 49 49 49 49 50 49 48 47 47 45 44 43
41 41 41 41 41 42 42 42 42 43 43 44 45 46 46 47 48 49 50 51 51 51 49 48 48 48 49 49 49 49 49 49 49 49 49 49 48 46 45 45 44 42 41
42 42 41 42 42 43 43 43 43 43 44 44 45 46 47 48 49 49 49 50 51 50 49 48 47 48 48 48 48 48 49 49 49 49 48 47 45 44 43 42 41 40 39
42 42 43 43 43 43 43 43 43 44 45 45 46 47 48 48 48 49 50 50 50 49 48 47 47 47 48 48 48 48 48 48 47 47 46 44 42 41 40 39 38 37 36
43 43 44 44 44 44 44 43 44 44 45 46 47 48 48 48 48 49 49 49 48 47 47 47 47 47 47 47 47 46 46 45 44 44 42 41 40 39 37 36 35 34 32
44 44 44 44 44 44 44 44 44 45 46 47 47 48 48 48 48 48 48 48 46 46 46 46 46 47 46 46 46 45 44 43 42 42 40 40 38 36 35 34 32 31 31
45 45 45 45 44 44 44 44 44 45 46 47 47 47 47 47 47 47 46 46 45 45 45 45 45 45 45 45 45 44 43 42 41 40 38 37 36 34 32 31 31 30 30
44 45 45 44 43 44 44 44 45 46 46 46 46 45 45 46 47 46 44 44 44 44 44 44 44 45 45 45 45 44 42 41 39 36 34 33 33 31 30 29 29 29 29
43 43 44 43 43 44 44 44 45 45 46 45 44 44 44 45 45 44 43 43 43 43 43 44 44 44 44 44 43 42 39 37 35 33 32 31 31 29 28 28 27 27 26
42 42 42 42 43 43 44 44 45 45 44 44 44 44 45 45 44 44 43 42 43 43 43 43 42 42 42 41 40 38 36 33 30 30 30 29 28 27 26 26 26 26 26
42 42 42 42 42 42 43 44 44 44 43 43 43 44 45 45 44 43 41 41 41 41 41 42 40 40 39 38 36 34 32 30 28 27 27 27 26 26 24 24 25 25 24
Wind_Direction
269 271 273 276 278 281 283 285 287 289 291 293 296 296 296 297 298 299 299 300 300 299 298 298 297 297 297 297 296 296 296 295 295 295 294 294 293 293 292 292 291 291 290
269 271 273 276 278 280 282 284 286 288 291 293 295 296 296 296 297 298 299 299 299 299 299 298 298 298 297 297 297 298 297 296 296 295 295 295 294 293 292 292 291 291 290
268 271 273 275 278 280 281 282 284 286 289 292 294 296 297 298 298 298 298 298 298 298 299 299 299 299 298 298 298 298 298 297 297 297 296 296 295 294 293 292 291 291 290
267 271 273 274 276 278 279 281 283 286 288 291 293 295 297 298 299 299 298 298 298 299 299 299 299 299 299 299 299 298 298 298 298 298 298 298 297 296 295 294 293 292 291
267 269 272 274 276 278 279 280 282 285 287 290 292 294 296 297 298 298 299 299 299 300 300 300 300 300 300 300 300 299 299 299 299 299 299 299 298 298 297 296 295 294 293
266 269 271 273 276 277 279 281 283 284 286 289 291 293 294 296 297 298 299 299 299 299 300 300 301 302 302 302 301 301 301 300 300 300 299 299 298 298 298 297 297 296 294
266 269 272 273 275 277 279 281 283 286 288 289 291 292 294 295 296 297 298 298 299 299 300 301 301 302 303 302 302 301 301 301 300 300 299 299 299 298 298 298 298 297 296
266 268 271 273 275 277 279 281 284 287 290 291 292 293 293 294 295 297 297 298 298 299 299 300 301 302 302 302 302 301 301 301 300 300 299 299 299 299 299 299 299 298 297
265 267 270 273 276 278 280 283 285 288 290 292 294 295 295 294 294 296 297 298 299 299 300 301 301 302 302 302 301 301 301 300 300 300 300 300 300 300 300 300 300 299 298
265 267 270 272 275 278 280 283 285 288 290 292 294 296 296 296 296 296 297 298 299 300 301 301 302 302 302 302 302 301 301 300 300 300 300 300 300 300 300 300 300 300 298
264 267 270 272 275 278 281 283 285 288 290 292 294 295 297 297 297 297 298 298 299 300 301 302 302 302 303 302 302 302 301 301 301 301 301 301 300 300 301 300 300 300 298
265 267 270 272 275 278 280 283 285 287 290 292 294 296 297 297 297 298 298 299 300 301 302 303 303 303 303 303 303 303 303 302 302 302 302 302 301 301 302 302 302 302 300
265 268 270 273 275 278 280 283 285 287 289 291 293 295 296 297 298 298 299 300 301 302 302 303 304 303 303 303 303 303 304 303 303 303 304 303 303 303 303 303 303 303 302
264 267 270 273 275 278 280 283 285 287 288 290 293 295 296 297 297 299 300 301 301 302 303 304 303 303 303 304 304 304 304 304 304 303 304 304 304 304 303 302 303 303 303
264 266 269 272 275 278 280 282 285 287 289 291 293 295 296 297 298 299 301 302 303 303 304 304 303 303 304 304 304 304 305 305 305 304 304 304 304 303 303 303 303 302 303
264 267 269 272 275 278 280 282 284 287 289 291 293 295 296 297 298 300 302 303 304 304 305 305 305 305 305 305 305 306 306 306 306 306 306 305 304 303 303 304 303 301 302
264 267 270 272 275 278 280 282 285 286 288 290 292 294 296 298 299 301 302 303 304 305 305 305 306 306 306 307 307 308 308 307 307 307 307 306 305 304 304 304 304 303 302
264 266 269 272 276 278 280 282 284 286 288 290 292 295 297 298 299 301 302 303 304 304 305 306 306 306 307 308 308 309 309 308 308 307 307 307 306 306 305 305 305 304 303
264 267 269 272 275 278 280 282 284 286 288 290 293 295 297 298 299 300 302 303 304 304 305 306 307 307 308 308 309 309 309 309 309 309 308 308 308 308 307 307 307 306 305
264 267 270 272 275 277 279 282 284 286 288 291 293 296 297 297 298 300 302 303 303 304 304 306 307 308 308 308 309 310 310 310 310 310 309 309 309 309 308 307 308 307 306
265 268 270 272 274 277 279 281 283 285 288 291 294 296 297 297 298 300 301 302 303 303 304 306 307 308 308 309 310 310 311 311 311 310 309 309 309 309 308 308 308 307 307
265 268 270 272 274 276 278 280 282 284 288 291 293 295 296 297 298 300 301 302 303 304 304 306 307 308 309 310 311 311 311 310 310 309 310 310 310 310 309 308 308 308 308
266 268 269 271 273 276 278 280 283 284 287 290 292 294 295 297 299 300 300 301 303 304 305 306 307 308 309 309 310 310 311 311 311 311 311 311 312 312 312 310 310 310 311
267 268 270 271 273 276 278 280 283 284 286 288 290 292 295 297 299 299 298 299 302 303 304 306 308 309 310 311 311 312 312 313 313 313 313 313 313 313 313 312 312 311 312
265 268 270 272 274 276 278 280 281 284 286 287 290 292 294 296 297 297 297 299 301 303 304 306 307 309 311 313 313 313 313 314 315 315 315 314 314 314 314 316 316 315 314
266 268 270 272 274 277 278 280 282 283 285 286 289 291 294 295 296 296 296 298 300 302 304 305 307 309 311 313 314 314 313 313 314 315 316 317 317 318 317 316 316 317 316
Height
5845 5845 5845 5844 5843 5842 5841 5840 5838 5837 5835 5834 5832 5829 5828 5825 5823 5820 5818 5815 5812 5809 5806 5803 5800 5797 5794 5790 5787 5784 5780 5777 5773 5770 5767 5763 5760 5756 5753 5749 5746 5742 5739
5841 5840 5840 5839 5839 5837 5836 5835 5834 5832 5831 5829 5827 5825 5822 5820 5818 5815 5812 5809 5806 5803 5800 5796 5793 5790 5786 5783 5779 5776 5772 5768 5764 5760 5757 5753 5749 5746 5742 5738 5734 5731 5727
5835 5835 5835 5834 5833 5832 5831 5830 5829 5827 5826 5824 5822 5819 5817 5814 5812 5809 5806 5803 5800 5796 5793 5789 5786 5782 5778 5775 5771 5767 5763 5759 5755 5751 5746 5742 5738 5734 5730 5726 5722 5718 5715
5830 5830 5829 5829 5828 5827 5826 5825 5824 5822 5820 5819 5816 5814 5811 5809 5806 5802 5799 5796 5792 5789 5785 5782 5778 5774 5770 5766 5762 5758 5754 5750 5745 5741 5736 5732 5727 5722 5718 5713 5709 5705 5701
5824 5824 5824 5823 5822 5821 5820 5819 5818 5817 5815 5813 5811 5808 5805 5802 5799 5796 5792 5789 5785 5781 5778 5774 5770 5766 5762 5758 5753 5749 5744 5740 5735 5730 5725 5721 5716 5711 5706 5701 5697 5692 5688
5818 5818 5818 5817 5816 5816 5814 5813 5812 5810 5808 5807 5804 5802 5798 5795 5792 5789 5785 5781 5778 5774 5770 5766 5762 5758 5753 5749 5744 5739 5735 5730 5725 5720 5715 5709 5704 5700 5695 5690 5684 5679 5675
5812 5812 5811 5811 5810 5809 5808 5807 5805 5804 5802 5800 5798 5795 5792 5788 5785 5781 5778 5774 5770 5766 5762 5758 5754 5749 5744 5739 5734 5729 5724 5719 5714 5709 5703 5698 5693 5688 5683 5677 5672 5666 5661
5805 5805 5805 5804 5804 5803 5802 5800 5799 5797 5795 5792 5790 5787 5785 5782 5779 5775 5771 5766 5762 5758 5754 5749 5744 5740 5735 5729 5724 5719 5713 5708 5703 5697 5692 5686 5681 5675 5670 5664 5659 5653 5647
5798 5798 5798 5797 5797 5796 5795 5793 5792 5790 5788 5785 5782 5779 5776 5773 5771 5768 5763 5759 5754 5750 5745 5740 5735 5730 5724 5719 5713 5708 5702 5697 5691 5685 5680 5674 5669 5663 5657 5651 5645 5639 5633
5791 5791 5791 5790 5790 5789 5787 5786 5784 5782 5780 5777 5774 5771 5768 5764 5761 5759 5756 5751 5746 5741 5736 5730 5725 5719 5713 5707 5701 5696 5690 5685 5679 5673 5667 5661 5656 5649 5643 5637 5631 5625 5620
5783 5783 5783 5783 5782 5781 5780 5778 5776 5774 5772 5769 5766 5763 5760 5756 5752 5749 5746 5743 5737 5731 5726 5720 5714 5707 5701 5695 5689 5683 5678 5672 5666 5660 5654 5648 5642 5636 5630 5624 5618 5612 5607
5776 5776 5776 5775 5774 5773 5772 5770 5768 5766 5764 5761 5758 5754 5751 5747 5743 5739 5736 5732 5728 5722 5715 5709 5702 5695 5689 5683 5677 5671 5665 5659 5653 5647 5641 5635 5629 5623 5617 5611 5605 5600 5594
5768 5768 5767 5767 5766 5765 5763 5762 5760 5758 5755 5752 5749 5746 5742 5738 5734 5729 5725 5721 5717 5712 5705 5698 5690 5683 5677 5671 5664 5658 5652 5646 5640 5634 5628 5622 5616 5611 5604 5599 5593 5587 5581
5759 5759 5759 5758 5758 5756 5755 5753 5751 5749 5746 5744 5740 5737 5733 5728 5724 5719 5714 5709 5705 5701 5695 5687 5679 5672 5665 5659 5652 5646 5640 5634 5628 5622 5616 5610 5604 5598 5592 5586 5581 5575 5570
5750 5751 5750 5750 5749 5747 5746 5744 5742 5740 5737 5734 5731 5727 5723 5718 5714 5708 5703 5697 5692 5687 5683 5676 5669 5661 5654 5647 5641 5634 5628 5622 5616 5609 5604 5598 5592 5586 5580 5574 5568 5563 5557
5741 5741 5741 5741 5740 5738 5737 5735 5733 5731 5728 5725 5721 5717 5713 5709 5704 5698 5692 5686 5680 5674 5670 5664 5657 5650 5643 5636 5629 5622 5616 5610 5604 5597 5591 5585 5579 5573 5567 5562 5556 5551 5546
5731 5732 5732 5731 5730 5729 5727 5726 5724 5721 5718 5715 5711 5707 5703 5698 5693 5688 5682 5676 5669 5663 5658 5653 5645 5639 5632 5625 5618 5611 5605 5598 5592 5586 5579 5573 5566 5561 5555 5549 5544 5539 5534
5722 5722 5722 5721 5721 5719 5718 5716 5714 5711 5708 5705 5701 5697 5693 5688 5683 5677 5672 5666 5659 5653 5647 5642 5636 5629 5622 5615 5608 5601 5594 5587 5581 5575 5568 5561 5555 5549 5544 5538 5533 5528 5524
5712 5712 5712 5711 5710 5709 5707 5706 5703 5701 5698 5694 5691 5687 5682 5678 5673 5667 5661 5655 5649 5643 5637 5631 5625 5619 5612 5604 5598 5591 5584 5577 5570 5563 5557 5551 5545 5539 5534 5529 5523 5519 5514
5701 5701 5701 5701 5700 5698 5697 5695 5693 5690 5687 5684 5680 5676 5672 5667 5662 5657 5651 5645 5639 5633 5627 5621 5615 5609 5602 5595 5588 5581 5575 5568 5561 5554 5547 5542 5536 5531 5525 5520 5515 5511 5506
5690 5691 5690 5690 5689 5688 5686 5684 5682 5680 5677 5673 5669 5665 5661 5656 5651 5646 5640 5635 5629 5623 5618 5612 5605 5599 5592 5586 5579 5572 5565 5559 5552 5545 5540 5534 5528 5523 5518 5512 5507 5503 5499
5679 5679 5679 5679 5678 5677 5675 5673 5671 5669 5666 5663 5659 5655 5650 5645 5641 5635 5630 5624 5619 5613 5608 5602 5596 5589 5583 5576 5569 5562 5556 5550 5545 5539 5532 5526 5520 5515 5510 5505 5501 5497 5493
5668 5668 5668 5667 5667 5666 5664 5662 5660 5657 5655 5651 5648 5644 5639 5635 5630 5626 5620 5615 5610 5603 5598 5593 5587 5580 5574 5568 5561 5554 5547 5540 5535 5529 5523 5518 5513 5508 5503 5499 5495 5491 5487
5656 5657 5657 5656 5656 5654 5652 5651 5648 5646 5643 5640 5637 5633 5629 5625 5620 5616 5611 5606 5601 5595 5590 5584 5578 5571 5564 5558 5551 5545 5539 5533 5527 5521 5516 5512 5507 5502 5497 5493 5489 5485 5481
5645 5645 5645 5645 5644 5643 5641 5639 5637 5635 5632 5629 5626 5623 5619 5615 5610 5606 5602 5597 5592 5586 5580 5574 5569 5563 5556 5549 5543 5537 5532 5527 5522 5517 5510 5506 5502 5497 5493 5488 5484 5480 5477
5635 5634 5634 5633 5633 5631 5629 5628 5626 5624 5622 5619 5616 5612 5609 5604 5600 5596 5592 5588 5583 5578 5572 5567 5561 5555 5549 5543 5536 5531 5526 5521 5516 5512 5506 5501 5497 5492 5490 5485 5480 5476 5472